| time (UTC) | temp F | wind direction | speed MPH | gust MPH | rain 1hr in | rain 24hr in | rain mn in | humidity % | barometer mb |
| 20260509211114 | 78 | 187 | 1.0 | 2.0 | 0.00 | 0.00 | 0.00 | 45 | 1009.7 |
| 20260509210611 | 78 | 194 | 3.0 | 3.0 | 0.00 | 0.00 | 0.00 | 45 | 1009.6 |
| 20260509210108 | 77 | 211 | 1.0 | 2.0 | 0.00 | 0.00 | 0.00 | 46 | 1009.5 |
| 20260509205602 | 77 | 220 | 3.0 | 3.0 | 0.00 | 0.00 | 0.00 | 44 | 1009.7 |
| 20260509205057 | 78 | 223 | 4.0 | 4.0 | 0.00 | 0.00 | 0.00 | 47 | 1009.6 |
| 20260509204554 | 77 | 249 | 3.0 | 3.0 | 0.00 | 0.00 | 0.00 | 47 | 1009.7 |
| 20260509204050 | 77 | 198 | 3.0 | 4.0 | 0.00 | 0.00 | 0.00 | 46 | 1009.6 |
| 20260509203546 | 77 | 211 | 3.0 | 3.0 | 0.00 | 0.00 | 0.00 | 48 | 1009.7 |
| 20260509203045 | 77 | 261 | 3.0 | 3.0 | 0.00 | 0.00 | 0.00 | 49 | 1009.8 |
| 20260509202545 | 77 | 214 | 4.0 | 4.0 | 0.00 | 0.00 | 0.00 | 48 | 1009.7 |
| 20260509202041 | 78 | 206 | 1.0 | 2.0 | 0.00 | 0.00 | 0.00 | 50 | 1009.8 |
| 20260509201536 | 77 | 228 | 6.0 | 7.0 | 0.00 | 0.00 | 0.00 | 49 | 1010.1 |
| 20260509201034 | 77 | 305 | 7.0 | 9.0 | 0.00 | 0.00 | 0.00 | 48 | 1010.0 |
| 20260509200532 | 77 | 252 | 1.0 | 2.0 | 0.00 | 0.00 | 0.00 | 48 | 1010.2 |
| 20260509200030 | 77 | 242 | 6.0 | 7.0 | 0.00 | 0.00 | 0.00 | 47 | 1010.2 |
| 20260509195526 | 76 | 201 | 3.0 | 4.0 | 0.00 | 0.00 | 0.00 | 53 | 1010.4 |
| 20260509195026 | 77 | 210 | 3.0 | 4.0 | 0.00 | 0.00 | 0.00 | 51 | 1010.4 |
| 20260509194521 | 75 | 274 | 2.0 | 3.0 | 0.00 | 0.00 | 0.00 | 50 | 1010.4 |
| 20260509194019 | 75 | 224 | 6.0 | 7.0 | 0.00 | 0.00 | 0.00 | 48 | 1010.3 |
| 20260509193518 | 76 | 228 | 6.0 | 8.0 | 0.00 | 0.00 | 0.00 | 49 | 1010.5 |
| 20260509193016 | 75 | 266 | 3.0 | 3.0 | 0.00 | 0.00 | 0.00 | 51 | 1010.4 |
| 20260509192512 | 75 | 195 | 4.0 | 4.0 | 0.00 | 0.00 | 0.00 | 53 | 1010.3 |
| 20260509192007 | 75 | 229 | 5.0 | 8.0 | 0.00 | 0.00 | 0.00 | 54 | 1010.4 |
| 20260509191502 | 76 | 193 | 2.0 | 3.0 | 0.00 | 0.00 | 0.00 | 52 | 1010.3 |
| 20260509190958 | 75 | 196 | 0.0 | 0.0 | 0.00 | 0.00 | 0.00 | 51 | 1010.2 |
| 20260509190455 | 75 | 199 | 4.0 | 4.0 | 0.00 | 0.00 | 0.00 | 51 | 1010.3 |
| 20260509185953 | 75 | 185 | 3.0 | 4.0 | 0.00 | 0.00 | 0.00 | 51 | 1010.4 |
| 20260509185450 | 75 | 213 | 5.0 | 7.0 | 0.00 | 0.00 | 0.00 | 53 | 1010.4 |
| 20260509184946 | 75 | 204 | 5.0 | 7.0 | 0.00 | 0.00 | 0.00 | 53 | 1010.3 |
| 20260509184445 | 74 | 195 | 2.0 | 3.0 | 0.00 | 0.00 | 0.00 | 51 | 1010.4 |
| 20260509183941 | 74 | 203 | 6.0 | 8.0 | 0.00 | 0.00 | 0.00 | 53 | 1010.3 |
| 20260509183440 | 75 | 195 | 8.0 | 9.0 | 0.00 | 0.00 | 0.00 | 52 | 1010.4 |
| 20260509182937 | 74 | 208 | 3.0 | 4.0 | 0.00 | 0.00 | 0.00 | 54 | 1010.2 |
| 20260509182434 | 73 | 299 | 4.0 | 6.0 | 0.00 | 0.00 | 0.00 | 57 | 1010.4 |
| 20260509181931 | 74 | 211 | 2.0 | 2.0 | 0.00 | 0.00 | 0.00 | 55 | 1010.2 |
| 20260509181429 | 74 | 206 | 2.0 | 4.0 | 0.00 | 0.00 | 0.00 | 61 | 1010.2 |
| 20260509180926 | 74 | 236 | 2.0 | 2.0 | 0.00 | 0.00 | 0.00 | 58 | 1010.4 |
| 20260509180421 | 74 | 229 | 4.0 | 4.0 | 0.00 | 0.00 | 0.00 | 58 | 1010.3 |
| 20260509175919 | 74 | 243 | 3.0 | 4.0 | 0.00 | 0.00 | 0.00 | 59 | 1010.2 |
| 20260509175415 | 74 | 342 | 1.0 | 1.0 | 0.00 | 0.00 | 0.00 | 56 | 1010.2 |
| 20260509174912 | 74 | 194 | 1.0 | 1.0 | 0.00 | 0.00 | 0.00 | 57 | 1010.3 |
| 20260509174408 | 73 | 236 | 3.0 | 4.0 | 0.00 | 0.00 | 0.00 | 58 | 1010.3 |
| 20260509173904 | 73 | 212 | 0.0 | 1.0 | 0.00 | 0.00 | 0.00 | 58 | 1010.4 |
| 20260509173403 | 73 | 185 | 1.0 | 3.0 | 0.00 | 0.00 | 0.00 | 59 | 1010.5 |
| 20260509172900 | 73 | 205 | 3.0 | 3.0 | 0.00 | 0.00 | 0.00 | 57 | 1010.6 |
| 20260509172357 | 72 | 317 | 3.0 | 4.0 | 0.00 | 0.00 | 0.00 | 60 | 1010.4 |
| 20260509171853 | 71 | 235 | 2.0 | 2.0 | 0.00 | 0.00 | 0.00 | 60 | 1010.2 |
| 20260509171349 | 70 | 42 | 3.0 | 3.0 | 0.00 | 0.00 | 0.00 | 61 | 1010.5 |
| 20260509170846 | 71 | 16 | 3.0 | 3.0 | 0.00 | 0.00 | 0.00 | 60 | 1010.5 |
| 20260509170342 | 72 | 276 | 1.0 | 3.0 | 0.00 | 0.00 | 0.00 | 60 | 1010.7 |
| 20260509165841 | 72 | 209 | 2.0 | 2.0 | 0.00 | 0.00 | 0.00 | 61 | 1010.5 |
| 20260509165336 | 71 | 318 | 1.0 | 1.0 | 0.00 | 0.00 | 0.00 | 61 | 1010.5 |
| 20260509164832 | 72 | 269 | 4.0 | 4.0 | 0.00 | 0.00 | 0.00 | 59 | 1010.6 |
| 20260509164329 | 73 | 323 | 1.0 | 2.0 | 0.00 | 0.00 | 0.00 | 61 | 1010.7 |
| 20260509163825 | 72 | 289 | 1.0 | 2.0 | 0.00 | 0.00 | 0.00 | 58 | 1010.6 |
| 20260509163323 | 71 | 331 | 1.0 | 2.0 | 0.00 | 0.00 | 0.00 | 65 | 1010.8 |
| 20260509162822 | 70 | 194 | 2.0 | 2.0 | 0.00 | 0.00 | 0.00 | 64 | 1010.6 |
| 20260509162320 | 71 | 213 | 2.0 | 3.0 | 0.00 | 0.00 | 0.00 | 65 | 1010.7 |
| 20260509161817 | 70 | 268 | 1.0 | 2.0 | 0.00 | 0.00 | 0.00 | 66 | 1010.8 |
| 20260509161313 | 71 | 191 | 4.0 | 4.0 | 0.00 | 0.00 | 0.00 | 62 | 1010.5 |
| 20260509160809 | 71 | 346 | 1.0 | 1.0 | 0.00 | 0.00 | 0.00 | 67 | 1010.4 |
| 20260509160305 | 70 | 244 | 1.0 | 2.0 | 0.00 | 0.00 | 0.00 | 63 | 1010.5 |
| 20260509155800 | 70 | 188 | 2.0 | 2.0 | 0.00 | 0.00 | 0.00 | 64 | 1010.7 |
| 20260509155257 | 69 | 230 | 2.0 | 2.0 | 0.00 | 0.00 | 0.00 | 67 | 1010.6 |
| 20260509154753 | 68 | 179 | 2.0 | 2.0 | 0.00 | 0.00 | 0.00 | 67 | 1010.6 |
| 20260509154250 | 68 | 298 | 2.0 | 3.0 | 0.00 | 0.00 | 0.00 | 67 | 1010.4 |
| 20260509153747 | 68 | 183 | 4.0 | 4.0 | 0.00 | 0.00 | 0.00 | 70 | 1010.5 |
| 20260509153243 | 68 | 236 | 4.0 | 4.0 | 0.00 | 0.00 | 0.00 | 69 | 1010.5 |
| 20260509152739 | 67 | 192 | 3.0 | 4.0 | 0.00 | 0.00 | 0.00 | 71 | 1010.2 |
| 20260509152236 | 68 | 208 | 2.0 | 3.0 | 0.00 | 0.00 | 0.00 | 69 | 1010.2 |
| 20260509151733 | 66 | 309 | 1.0 | 2.0 | 0.00 | 0.00 | 0.00 | 73 | 1010.2 |
| 20260509151230 | 66 | 261 | 1.0 | 2.0 | 0.00 | 0.00 | 0.00 | 72 | 1010.3 |
| 20260509150728 | 66 | 180 | 2.0 | 2.0 | 0.00 | 0.00 | 0.00 | 73 | 1010.2 |
| 20260509150226 | 65 | 197 | 0.0 | 1.0 | 0.00 | 0.00 | 0.00 | 77 | 1010.3 |
| 20260509145723 | 65 | 235 | 0.0 | 1.0 | 0.00 | 0.00 | 0.00 | 76 | 1010.1 |
| 20260509145223 | 66 | 211 | 3.0 | 4.0 | 0.00 | 0.00 | 0.00 | 74 | 1010.2 |
| 20260509144719 | 65 | 235 | 3.0 | 3.0 | 0.00 | 0.00 | 0.00 | 75 | 1010.3 |
| 20260509144216 | 65 | 204 | 1.0 | 2.0 | 0.00 | 0.00 | 0.00 | 74 | 1010.1 |
| 20260509143714 | 65 | 229 | 2.0 | 2.0 | 0.00 | 0.00 | 0.00 | 76 | 1010.0 |
| 20260509143211 | 65 | 256 | 0.0 | 0.0 | 0.00 | 0.00 | 0.00 | 75 | 1010.0 |
| 20260509142706 | 64 | 194 | 1.0 | 1.0 | 0.00 | 0.00 | 0.00 | 78 | 1010.0 |
| 20260509142203 | 64 | 264 | 2.0 | 2.0 | 0.00 | 0.00 | 0.00 | 79 | 1010.1 |
| 20260509141659 | 64 | 205 | 3.0 | 4.0 | 0.00 | 0.00 | 0.00 | 79 | 1010.0 |
| 20260509141156 | 64 | 198 | 6.0 | 8.0 | 0.00 | 0.00 | 0.00 | 78 | 1009.9 |
| 20260509140652 | 63 | 320 | 2.0 | 3.0 | 0.00 | 0.00 | 0.00 | 79 | 1009.8 |
| 20260509140150 | 62 | 221 | 4.0 | 6.0 | 0.00 | 0.00 | 0.00 | 81 | 1009.7 |
| 20260509135647 | 63 | 203 | 6.0 | 7.0 | 0.00 | 0.00 | 0.00 | 80 | 1009.8 |
| 20260509135146 | 63 | 235 | 2.0 | 4.0 | 0.00 | 0.00 | 0.00 | 80 | 1010.0 |
| 20260509134642 | 61 | 227 | 4.0 | 6.0 | 0.00 | 0.00 | 0.00 | 82 | 1009.9 |
| 20260509134139 | 61 | 216 | 3.0 | 4.0 | 0.00 | 0.00 | 0.00 | 82 | 1009.8 |
| 20260509133636 | 61 | 226 | 2.0 | 3.0 | 0.00 | 0.00 | 0.00 | 82 | 1009.9 |
| 20260509133133 | 60 | 254 | 3.0 | 3.0 | 0.00 | 0.00 | 0.00 | 84 | 1009.7 |
| 20260509132632 | 60 | 201 | 3.0 | 4.0 | 0.00 | 0.00 | 0.00 | 82 | 1009.8 |
| 20260509132130 | 60 | 205 | 6.0 | 7.0 | 0.00 | 0.00 | 0.00 | 81 | 1009.8 |
| 20260509131626 | 60 | 196 | 5.0 | 7.0 | 0.00 | 0.00 | 0.00 | 82 | 1009.8 |
| 20260509131123 | 60 | 217 | 2.0 | 3.0 | 0.00 | 0.00 | 0.00 | 84 | 1009.7 |
| 20260509130619 | 60 | 232 | 5.0 | 6.0 | 0.00 | 0.00 | 0.00 | 83 | 1009.7 |
| 20260509130115 | 60 | 207 | 6.0 | 7.0 | 0.00 | 0.00 | 0.00 | 83 | 1009.9 |
| 20260509125612 | 60 | 223 | 4.0 | 6.0 | 0.00 | 0.00 | 0.00 | 83 | 1009.8 |
| 20260509125108 | 59 | 208 | 3.0 | 6.0 | 0.00 | 0.00 | 0.00 | 84 | 1009.8 |
| 20260509124605 | 59 | 218 | 2.0 | 2.0 | 0.00 | 0.00 | 0.00 | 84 | 1009.8 |
| 20260509124102 | 59 | 220 | 7.0 | 8.0 | 0.00 | 0.00 | 0.00 | 84 | 1009.7 |
| 20260509123600 | 59 | 202 | 4.0 | 6.0 | 0.00 | 0.00 | 0.00 | 85 | 1009.6 |
| 20260509123056 | 58 | 222 | 2.0 | 2.0 | 0.00 | 0.00 | 0.00 | 85 | 1009.4 |
| 20260509122552 | 58 | 179 | 3.0 | 3.0 | 0.00 | 0.00 | 0.00 | 85 | 1009.4 |
| 20260509122050 | 58 | 209 | 3.0 | 3.0 | 0.00 | 0.00 | 0.00 | 85 | 1009.3 |
| 20260509121546 | 58 | 200 | 4.0 | 4.0 | 0.00 | 0.00 | 0.00 | 85 | 1009.3 |
| 20260509121048 | 58 | 200 | 2.0 | 2.0 | 0.00 | 0.00 | 0.00 | 86 | 1009.3 |
| 20260509120542 | 58 | 205 | 4.0 | 4.0 | 0.00 | 0.00 | 0.00 | 86 | 1009.3 |
| 20260509120040 | 57 | 207 | 1.0 | 2.0 | 0.00 | 0.00 | 0.00 | 86 | 1009.0 |
| 20260509115536 | 57 | 218 | 6.0 | 7.0 | 0.00 | 0.00 | 0.00 | 87 | 1009.0 |
| 20260509115034 | 57 | 197 | 4.0 | 4.0 | 0.00 | 0.00 | 0.00 | 87 | 1008.9 |
| 20260509114532 | 57 | 204 | 4.0 | 4.0 | 0.00 | 0.00 | 0.00 | 87 | 1008.8 |
| 20260509114031 | 57 | 202 | 3.0 | 3.0 | 0.00 | 0.00 | 0.00 | 86 | 1008.6 |
| 20260509113529 | 57 | 210 | 4.0 | 4.0 | 0.00 | 0.00 | 0.00 | 86 | 1008.4 |
| 20260509113027 | 57 | 212 | 1.0 | 2.0 | 0.00 | 0.00 | 0.00 | 86 | 1008.5 |
| 20260509112523 | 57 | 204 | 5.0 | 7.0 | 0.00 | 0.00 | 0.00 | 86 | 1008.3 |
| 20260509112019 | 57 | 199 | 3.0 | 3.0 | 0.00 | 0.00 | 0.00 | 86 | 1008.2 |
| 20260509111517 | 57 | 208 | 4.0 | 6.0 | 0.00 | 0.00 | 0.00 | 86 | 1008.4 |
| 20260509111014 | 57 | 202 | 2.0 | 2.0 | 0.00 | 0.00 | 0.00 | 86 | 1008.4 |
| 20260509110510 | 57 | 213 | 2.0 | 3.0 | 0.00 | 0.00 | 0.00 | 86 | 1008.3 |
| 20260509110007 | 57 | 239 | 2.0 | 2.0 | 0.00 | 0.00 | 0.00 | 86 | 1008.5 |
| 20260509105506 | 57 | 203 | 2.0 | 3.0 | 0.00 | 0.00 | 0.00 | 86 | 1008.5 |
| 20260509105003 | 57 | 197 | 3.0 | 3.0 | 0.00 | 0.00 | 0.00 | 85 | 1008.3 |
| 20260509104500 | 57 | 198 | 3.0 | 3.0 | 0.00 | 0.00 | 0.00 | 84 | 1008.1 |
| 20260509103957 | 57 | 214 | 4.0 | 4.0 | 0.00 | 0.00 | 0.00 | 84 | 1008.0 |
| 20260509103454 | 57 | 214 | 3.0 | 3.0 | 0.00 | 0.00 | 0.00 | 84 | 1008.2 |
| 20260509102953 | 57 | 207 | 8.0 | 10.0 | 0.00 | 0.00 | 0.00 | 84 | 1008.0 |
| 20260509102450 | 57 | 222 | 2.0 | 3.0 | 0.00 | 0.00 | 0.00 | 84 | 1007.9 |
| 20260509101946 | 57 | 217 | 4.0 | 6.0 | 0.00 | 0.00 | 0.00 | 84 | 1007.8 |
| 20260509101442 | 57 | 211 | 2.0 | 3.0 | 0.00 | 0.00 | 0.00 | 84 | 1007.8 |
| 20260509100940 | 57 | 211 | 2.0 | 3.0 | 0.00 | 0.00 | 0.00 | 84 | 1007.8 |
| 20260509100437 | 57 | 234 | 2.0 | 2.0 | 0.00 | 0.00 | 0.00 | 84 | 1007.9 |
| 20260509095933 | 57 | 196 | 2.0 | 2.0 | 0.00 | 0.00 | 0.00 | 84 | 1007.9 |
| 20260509095430 | 57 | 188 | 3.0 | 3.0 | 0.00 | 0.00 | 0.00 | 84 | 1008.1 |
| 20260509094927 | 57 | 195 | 2.0 | 3.0 | 0.00 | 0.00 | 0.00 | 84 | 1008.1 |
| 20260509094424 | 57 | 200 | 2.0 | 3.0 | 0.00 | 0.00 | 0.00 | 83 | 1008.0 |
| 20260509093922 | 57 | 221 | 3.0 | 4.0 | 0.00 | 0.00 | 0.00 | 83 | 1008.3 |
| 20260509093419 | 57 | 216 | 4.0 | 4.0 | 0.00 | 0.00 | 0.00 | 83 | 1008.2 |
| 20260509092917 | 58 | 198 | 4.0 | 4.0 | 0.00 | 0.00 | 0.00 | 82 | 1008.4 |
| 20260509092414 | 58 | 219 | 4.0 | 4.0 | 0.00 | 0.00 | 0.00 | 81 | 1007.9 |
| 20260509091913 | 58 | 208 | 3.0 | 3.0 | 0.00 | 0.00 | 0.00 | 80 | 1008.3 |
| 20260509091409 | 58 | 191 | 4.0 | 6.0 | 0.00 | 0.00 | 0.00 | 79 | 1008.6 |
| 20260509090907 | 58 | 195 | 5.0 | 6.0 | 0.00 | 0.00 | 0.00 | 79 | 1008.4 |
| 20260509090403 | 59 | 201 | 3.0 | 4.0 | 0.00 | 0.00 | 0.00 | 79 | 1008.5 |
| 20260509085901 | 59 | 211 | 4.0 | 4.0 | 0.00 | 0.00 | 0.00 | 78 | 1009.0 |
| 20260509085358 | 59 | 215 | 3.0 | 3.0 | 0.00 | 0.00 | 0.00 | 78 | 1008.4 |
| 20260509084854 | 59 | 212 | 4.0 | 6.0 | 0.00 | 0.00 | 0.00 | 78 | 1008.6 |
| 20260509084351 | 59 | 203 | 4.0 | 4.0 | 0.00 | 0.00 | 0.00 | 78 | 1008.9 |
| 20260509083849 | 59 | 204 | 4.0 | 4.0 | 0.00 | 0.00 | 0.00 | 78 | 1009.0 |
| 20260509083345 | 59 | 215 | 5.0 | 6.0 | 0.00 | 0.00 | 0.00 | 78 | 1008.8 |
| 20260509082842 | 59 | 204 | 3.0 | 4.0 | 0.00 | 0.00 | 0.00 | 78 | 1008.9 |
| 20260509082339 | 59 | 195 | 1.0 | 1.0 | 0.00 | 0.00 | 0.00 | 77 | 1008.6 |
| 20260509081837 | 59 | 216 | 2.0 | 2.0 | 0.00 | 0.00 | 0.00 | 77 | 1008.8 |
| 20260509081333 | 59 | 204 | 2.0 | 3.0 | 0.00 | 0.00 | 0.00 | 78 | 1009.0 |
| 20260509080832 | 59 | 218 | 1.0 | 1.0 | 0.00 | 0.00 | 0.00 | 77 | 1009.0 |
| 20260509080329 | 59 | 216 | 2.0 | 2.0 | 0.00 | 0.00 | 0.00 | 77 | 1009.3 |
| 20260509075827 | 59 | 205 | 5.0 | 6.0 | 0.00 | 0.00 | 0.00 | 77 | 1009.2 |
| 20260509075324 | 59 | 195 | 4.0 | 4.0 | 0.00 | 0.00 | 0.00 | 76 | 1009.0 |
| 20260509074821 | 59 | 206 | 1.0 | 1.0 | 0.00 | 0.00 | 0.00 | 76 | 1009.2 |
| 20260509074319 | 59 | 226 | 3.0 | 3.0 | 0.00 | 0.00 | 0.00 | 76 | 1009.1 |
| 20260509073815 | 59 | 197 | 4.0 | 4.0 | 0.00 | 0.00 | 0.00 | 76 | 1009.2 |
| 20260509073311 | 59 | 206 | 2.0 | 2.0 | 0.00 | 0.00 | 0.00 | 76 | 1009.2 |
| 20260509072808 | 59 | 205 | 3.0 | 3.0 | 0.00 | 0.00 | 0.00 | 76 | 1009.1 |
| 20260509072306 | 59 | 186 | 2.0 | 2.0 | 0.00 | 0.00 | 0.00 | 75 | 1009.0 |
| 20260509071801 | 59 | 239 | 3.0 | 4.0 | 0.00 | 0.00 | 0.00 | 75 | 1009.2 |
| 20260509071258 | 59 | 210 | 3.0 | 4.0 | 0.00 | 0.00 | 0.00 | 75 | 1009.1 |
| 20260509070755 | 59 | 204 | 2.0 | 3.0 | 0.00 | 0.00 | 0.00 | 75 | 1009.0 |
| 20260509070252 | 59 | 230 | 3.0 | 4.0 | 0.00 | 0.00 | 0.00 | 74 | 1009.0 |
| 20260509065748 | 59 | 215 | 3.0 | 4.0 | 0.00 | 0.00 | 0.00 | 73 | 1008.8 |
| 20260509065245 | 59 | 202 | 4.0 | 7.0 | 0.00 | 0.00 | 0.00 | 73 | 1008.6 |
| 20260509064741 | 59 | 223 | 2.0 | 2.0 | 0.00 | 0.00 | 0.00 | 73 | 1008.5 |
| 20260509064239 | 59 | 231 | 3.0 | 4.0 | 0.00 | 0.00 | 0.00 | 73 | 1008.6 |
| 20260509063736 | 59 | 208 | 4.0 | 6.0 | 0.00 | 0.00 | 0.00 | 72 | 1008.9 |
| 20260509063232 | 60 | 169 | 4.0 | 6.0 | 0.00 | 0.00 | 0.00 | 72 | 1009.2 |
| 20260509062730 | 60 | 204 | 4.0 | 6.0 | 0.00 | 0.00 | 0.00 | 72 | 1009.2 |
| 20260509062226 | 60 | 176 | 4.0 | 6.0 | 0.00 | 0.00 | 0.00 | 71 | 1009.2 |
| 20260509061723 | 60 | 208 | 3.0 | 6.0 | 0.00 | 0.00 | 0.00 | 70 | 1009.2 |
| 20260509061221 | 60 | 207 | 4.0 | 7.0 | 0.00 | 0.00 | 0.00 | 70 | 1009.5 |
| 20260509060719 | 60 | 219 | 4.0 | 6.0 | 0.00 | 0.00 | 0.00 | 70 | 1009.6 |
| 20260509060214 | 60 | 219 | 4.0 | 4.0 | 0.00 | 0.00 | 0.00 | 69 | 1009.8 |
| 20260509055710 | 60 | 223 | 5.0 | 6.0 | 0.00 | 0.00 | 0.00 | 69 | 1009.5 |
| 20260509055206 | 60 | 232 | 5.0 | 7.0 | 0.00 | 0.00 | 0.00 | 68 | 1009.5 |
| 20260509054703 | 60 | 215 | 4.0 | 4.0 | 0.00 | 0.00 | 0.00 | 68 | 1009.6 |
| 20260509054200 | 60 | 236 | 4.0 | 4.0 | 0.00 | 0.00 | 0.00 | 68 | 1009.4 |
| 20260509053659 | 60 | 179 | 4.0 | 4.0 | 0.00 | 0.00 | 0.00 | 67 | 1009.7 |
| 20260509053155 | 60 | 216 | 3.0 | 4.0 | 0.00 | 0.00 | 0.00 | 67 | 1009.5 |
| 20260509052653 | 60 | 228 | 6.0 | 8.0 | 0.00 | 0.00 | 0.00 | 67 | 1009.7 |
| 20260509052150 | 60 | 216 | 3.0 | 3.0 | 0.00 | 0.00 | 0.00 | 66 | 1009.6 |
| 20260509051648 | 60 | 179 | 3.0 | 3.0 | 0.00 | 0.00 | 0.00 | 66 | 1009.6 |
| 20260509051145 | 60 | 212 | 3.0 | 3.0 | 0.00 | 0.00 | 0.00 | 65 | 1009.6 |
| 20260509050642 | 61 | 211 | 4.0 | 4.0 | 0.00 | 0.00 | 0.00 | 65 | 1009.6 |
| 20260509050139 | 61 | 203 | 3.0 | 3.0 | 0.00 | 0.00 | 0.00 | 64 | 1009.7 |
| 20260509045636 | 61 | 212 | 4.0 | 4.0 | 0.00 | 0.00 | 0.00 | 64 | 1009.7 |
| 20260509045133 | 61 | 205 | 2.0 | 3.0 | 0.00 | 0.00 | 0.00 | 64 | 1009.7 |
| 20260509044630 | 61 | 213 | 2.0 | 3.0 | 0.00 | 0.00 | 0.00 | 64 | 1009.3 |
| 20260509044128 | 61 | 190 | 4.0 | 4.0 | 0.00 | 0.00 | 0.00 | 63 | 1009.5 |
| 20260509043624 | 61 | 209 | 2.0 | 3.0 | 0.00 | 0.00 | 0.00 | 62 | 1009.7 |
| 20260509043120 | 62 | 212 | 2.0 | 3.0 | 0.00 | 0.00 | 0.00 | 62 | 1009.8 |
| 20260509042616 | 62 | 210 | 4.0 | 4.0 | 0.00 | 0.00 | 0.00 | 61 | 1009.5 |
| 20260509042112 | 62 | 194 | 6.0 | 7.0 | 0.00 | 0.00 | 0.00 | 61 | 1009.7 |
| 20260509041609 | 62 | 192 | 2.0 | 3.0 | 0.00 | 0.00 | 0.00 | 60 | 1009.5 |
| 20260509041107 | 62 | 234 | 2.0 | 2.0 | 0.00 | 0.00 | 0.00 | 60 | 1009.6 |
| 20260509040605 | 62 | 198 | 3.0 | 3.0 | 0.00 | 0.00 | 0.00 | 59 | 1009.5 |
| 20260509040101 | 62 | 213 | 3.0 | 4.0 | 0.00 | 0.00 | 0.00 | 58 | 1009.6 |
| 20260509035558 | 62 | 202 | 4.0 | 6.0 | 0.00 | 0.00 | 0.00 | 58 | 1009.7 |
| 20260509035055 | 62 | 227 | 2.0 | 3.0 | 0.00 | 0.00 | 0.00 | 58 | 1009.6 |
| 20260509034553 | 62 | 175 | 3.0 | 4.0 | 0.00 | 0.00 | 0.00 | 58 | 1009.7 |
| 20260509034050 | 62 | 200 | 4.0 | 4.0 | 0.00 | 0.00 | 0.00 | 57 | 1009.8 |
| 20260509033547 | 62 | 220 | 4.0 | 6.0 | 0.00 | 0.00 | 0.00 | 57 | 1009.7 |
| 20260509033043 | 62 | 195 | 2.0 | 3.0 | 0.00 | 0.00 | 0.00 | 56 | 1009.7 |
| 20260509032541 | 62 | 225 | 3.0 | 3.0 | 0.00 | 0.00 | 0.00 | 57 | 1009.8 |
| 20260509032038 | 62 | 184 | 1.0 | 1.0 | 0.00 | 0.00 | 0.00 | 56 | 1009.7 |
| 20260509031536 | 62 | 184 | 3.0 | 3.0 | 0.00 | 0.00 | 0.00 | 56 | 1009.9 |
| 20260509031033 | 62 | 217 | 2.0 | 2.0 | 0.00 | 0.00 | 0.00 | 57 | 1010.0 |
| 20260509030531 | 61 | 212 | 1.0 | 2.0 | 0.00 | 0.00 | 0.00 | 58 | 1009.9 |
| 20260509030027 | 61 | 206 | 1.0 | 2.0 | 0.00 | 0.00 | 0.00 | 58 | 1009.5 |
| 20260509025523 | 61 | 272 | 1.0 | 1.0 | 0.00 | 0.00 | 0.00 | 58 | 1009.7 |
| 20260509025019 | 62 | 166 | 0.0 | 0.0 | 0.00 | 0.00 | 0.00 | 58 | 1009.8 |
| 20260509024515 | 61 | 207 | 0.0 | 0.0 | 0.00 | 0.00 | 0.00 | 57 | 1009.9 |
| 20260509024012 | 62 | 186 | 0.0 | 1.0 | 0.00 | 0.00 | 0.00 | 56 | 1009.7 |
| 20260509023509 | 62 | 230 | 0.0 | 0.0 | 0.00 | 0.00 | 0.00 | 56 | 1009.7 |
| 20260509023006 | 62 | 205 | 0.0 | 1.0 | 0.00 | 0.00 | 0.00 | 56 | 1009.7 |
| 20260509022503 | 62 | 231 | 0.0 | 0.0 | 0.00 | 0.00 | 0.00 | 55 | 1009.8 |
| 20260509022000 | 63 | 233 | 1.0 | 1.0 | 0.00 | 0.00 | 0.00 | 55 | 1009.8 |
| 20260509021457 | 62 | 216 | 1.0 | 1.0 | 0.00 | 0.00 | 0.00 | 56 | 1009.9 |
| 20260509020954 | 62 | 182 | 0.0 | 0.0 | 0.00 | 0.00 | 0.00 | 57 | 1009.9 |
| 20260509020453 | 62 | 181 | 1.0 | 1.0 | 0.00 | 0.00 | 0.00 | 55 | 1009.9 |
| 20260509015949 | 63 | 221 | 1.0 | 1.0 | 0.00 | 0.00 | 0.00 | 54 | 1009.9 |
| 20260509015448 | 63 | 223 | 0.0 | 0.0 | 0.00 | 0.00 | 0.00 | 53 | 1009.8 |
| 20260509014944 | 63 | 206 | 0.0 | 1.0 | 0.00 | 0.00 | 0.00 | 54 | 1009.8 |
| 20260509014441 | 64 | 243 | 1.0 | 1.0 | 0.00 | 0.00 | 0.00 | 53 | 1009.6 |
| 20260509013937 | 64 | 254 | 0.0 | 0.0 | 0.00 | 0.00 | 0.00 | 54 | 1009.7 |
| 20260509013434 | 64 | 214 | 1.0 | 2.0 | 0.00 | 0.00 | 0.00 | 53 | 1009.6 |
| 20260509012930 | 63 | 222 | 0.0 | 0.0 | 0.00 | 0.00 | 0.00 | 54 | 1009.8 |
| 20260509012427 | 63 | 110 | 0.0 | 0.0 | 0.00 | 0.00 | 0.00 | 53 | 1009.7 |
| 20260509011924 | 63 | 189 | 1.0 | 2.0 | 0.00 | 0.00 | 0.00 | 53 | 1009.5 |
| 20260509011421 | 64 | 219 | 0.0 | 0.0 | 0.00 | 0.00 | 0.00 | 53 | 1009.5 |
| 20260509010919 | 64 | 127 | 1.0 | 1.0 | 0.00 | 0.00 | 0.00 | 54 | 1009.6 |
| 20260509010416 | 64 | 55 | 0.0 | 1.0 | 0.00 | 0.00 | 0.00 | 53 | 1009.7 |
| 20260509005913 | 64 | 91 | 0.0 | 1.0 | 0.00 | 0.00 | 0.00 | 53 | 1009.6 |
| 20260509005411 | 65 | 158 | 0.0 | 0.0 | 0.00 | 0.00 | 0.00 | 53 | 1009.6 |
| 20260509004911 | 65 | 203 | 0.0 | 0.0 | 0.00 | 0.00 | 0.00 | 53 | 1009.7 |
| 20260509004408 | 66 | 190 | 0.0 | 1.0 | 0.00 | 0.00 | 0.00 | 53 | 1009.8 |
| 20260509003906 | 66 | 201 | 0.0 | 1.0 | 0.00 | 0.00 | 0.00 | 51 | 1009.7 |
| 20260509003403 | 66 | 205 | 0.0 | 0.0 | 0.00 | 0.00 | 0.00 | 50 | 1009.9 |
| 20260509002900 | 67 | 257 | 0.0 | 1.0 | 0.00 | 0.00 | 0.00 | 49 | 1009.9 |
| 20260509002358 | 68 | 204 | 0.0 | 0.0 | 0.00 | 0.00 | 0.00 | 48 | 1009.8 |
| 20260509001855 | 68 | 172 | 1.0 | 1.0 | 0.00 | 0.00 | 0.00 | 48 | 1009.9 |
| 20260509001351 | 69 | 190 | 2.0 | 3.0 | 0.00 | 0.00 | 0.00 | 46 | 1010.1 |
| 20260509000848 | 69 | 221 | 1.0 | 2.0 | 0.00 | 0.00 | 0.00 | 46 | 1010.0 |
| 20260509000348 | 69 | 180 | 0.0 | 1.0 | 0.00 | 0.00 | 0.00 | 45 | 1010.1 |
| 20260508235842 | 69 | 197 | 0.0 | 0.0 | 0.00 | 0.00 | 0.00 | 45 | 1010.1 |
| 20260508235339 | 70 | 185 | 1.0 | 1.0 | 0.00 | 0.00 | 0.00 | 45 | 1010.0 |
| 20260508234836 | 70 | 217 | 2.0 | 2.0 | 0.00 | 0.00 | 0.00 | 43 | 1010.1 |
| 20260508234332 | 71 | 188 | 2.0 | 3.0 | 0.00 | 0.00 | 0.00 | 44 | 1010.4 |
| 20260508233831 | 71 | 215 | 2.0 | 2.0 | 0.00 | 0.00 | 0.00 | 41 | 1010.4 |
| 20260508233330 | 71 | 207 | 2.0 | 2.0 | 0.00 | 0.00 | 0.00 | 41 | 1010.4 |
| 20260508232826 | 71 | 177 | 1.0 | 1.0 | 0.00 | 0.00 | 0.00 | 41 | 1010.4 |
| 20260508232323 | 72 | 138 | 2.0 | 2.0 | 0.00 | 0.00 | 0.00 | 43 | 1010.4 |
| 20260508231822 | 72 | 202 | 4.0 | 6.0 | 0.00 | 0.00 | 0.00 | 39 | 1010.4 |
| 20260508231317 | 72 | 169 | 3.0 | 4.0 | 0.00 | 0.00 | 0.00 | 39 | 1010.7 |
| 20260508230814 | 72 | 207 | 4.0 | 4.0 | 0.00 | 0.00 | 0.00 | 39 | 1010.7 |
| 20260508230311 | 72 | 320 | 1.0 | 1.0 | 0.00 | 0.00 | 0.00 | 38 | 1010.7 |
| 20260508225808 | 72 | 106 | 3.0 | 4.0 | 0.00 | 0.00 | 0.00 | 39 | 1010.6 |
| 20260508225306 | 73 | 204 | 2.0 | 3.0 | 0.00 | 0.00 | 0.00 | 40 | 1010.9 |
| 20260508224803 | 73 | 237 | 4.0 | 6.0 | 0.00 | 0.00 | 0.00 | 39 | 1010.7 |
| 20260508224300 | 73 | 214 | 1.0 | 2.0 | 0.00 | 0.00 | 0.00 | 40 | 1010.7 |
| 20260508223758 | 73 | 241 | 1.0 | 1.0 | 0.00 | 0.00 | 0.00 | 42 | 1010.7 |
| 20260508223255 | 73 | 179 | 4.0 | 6.0 | 0.00 | 0.00 | 0.00 | 39 | 1010.7 |
| 20260508222752 | 73 | 208 | 2.0 | 2.0 | 0.00 | 0.00 | 0.00 | 38 | 1010.7 |
| 20260508222249 | 72 | 218 | 2.0 | 3.0 | 0.00 | 0.00 | 0.00 | 39 | 1010.8 |
| 20260508221745 | 72 | 212 | 4.0 | 6.0 | 0.00 | 0.00 | 0.00 | 36 | 1010.7 |
| 20260508221241 | 72 | 211 | 3.0 | 3.0 | 0.00 | 0.00 | 0.00 | 38 | 1010.7 |
| 20260508220737 | 73 | 218 | 2.0 | 4.0 | 0.00 | 0.00 | 0.00 | 37 | 1010.8 |
| 20260508220234 | 72 | 192 | 3.0 | 3.0 | 0.00 | 0.00 | 0.00 | 38 | 1010.7 |
| 20260508215731 | 72 | 209 | 3.0 | 4.0 | 0.00 | 0.00 | 0.00 | 38 | 1010.7 |
| 20260508215227 | 72 | 227 | 2.0 | 2.0 | 0.00 | 0.00 | 0.00 | 37 | 1010.9 |
| 20260508214725 | 72 | 217 | 2.0 | 2.0 | 0.00 | 0.00 | 0.00 | 39 | 1010.6 |
| 20260508214222 | 72 | 223 | 4.0 | 6.0 | 0.00 | 0.00 | 0.00 | 38 | 1010.7 |
| 20260508213718 | 73 | 196 | 2.0 | 3.0 | 0.00 | 0.00 | 0.00 | 39 | 1010.8 |
| 20260508213215 | 72 | 226 | 4.0 | 4.0 | 0.00 | 0.00 | 0.00 | 39 | 1010.7 |
| 20260508212711 | 72 | 189 | 6.0 | 10.0 | 0.00 | 0.00 | 0.00 | 38 | 1010.7 |
| 20260508212208 | 73 | 209 | 9.0 | 10.0 | 0.00 | 0.00 | 0.00 | 36 | 1010.9 |
| 20260508211703 | 73 | 207 | 4.0 | 4.0 | 0.00 | 0.00 | 0.00 | 38 | 1010.8 |